Theta_e
303 303 302 302 303 302 303 303 303 303 304 304 305 304 302 303 304 305 305 306 306 306 307 307 307 305 304 303 301 300 303 308 310 310 310 310 309 308 308 307 307 302 300 304 306 309 310 309 311 310 305 305 310 310 312 314 313 319 324 323 324 322 321 323 326 326 325 326 327 325 325 327 327 325 323 321 321 323 323 322 323 325 328 331 333 334 336 338
303 302 301 302 303 303 302 303 303 303 303 303 303 302 302 303 304 304 305 306 306 306 307 307 306 303 300 300 300 299 303 307 308 307 308 308 308 307 307 307 306 302 300 303 306 310 310 309 311 310 307 305 307 310 311 313 315 317 320 321 321 320 320 323 325 325 326 326 326 326 325 325 326 326 323 324 326 323 323 323 322 323 327 332 334 336 338 337
302 301 301 302 302 302 302 302 302 302 302 302 302 302 303 303 303 304 305 306 305 305 307 306 304 301 298 299 300 299 302 305 304 301 303 305 307 306 305 305 305 303 302 303 305 311 311 310 311 309 307 306 305 308 309 312 315 314 316 320 318 318 321 323 324 324 325 325 326 327 325 325 326 327 324 325 327 324 324 325 324 323 325 333 334 336 338 337
301 301 301 301 301 301 301 302 302 302 302 302 303 303 304 303 303 303 304 306 305 303 305 305 301 299 298 299 300 299 301 305 303 300 301 303 305 304 302 302 302 302 303 303 305 310 312 311 311 309 308 307 307 307 307 310 314 314 315 317 317 319 320 321 322 322 322 322 324 326 326 327 326 326 324 326 327 326 327 326 325 325 325 333 333 335 337 338
301 301 301 301 301 301 301 302 302 302 302 302 303 303 304 304 304 303 303 305 303 301 304 304 300 298 299 299 300 300 301 303 302 300 301 302 302 301 301 301 301 301 302 304 304 309 311 311 311 309 308 307 308 307 305 308 311 313 314 314 315 317 318 319 319 319 318 319 321 324 327 326 326 326 326 328 329 328 329 326 325 325 325 332 333 335 337 337
301 301 301 301 301 301 301 301 301 302 302 302 303 303 303 304 304 303 304 303 300 301 305 303 299 298 300 299 300 301 301 301 300 301 301 301 301 301 301 301 301 300 302 304 304 306 307 307 307 307 307 308 308 308 306 307 309 311 312 312 313 314 315 315 315 315 315 317 319 321 323 323 324 327 327 328 328 328 327 324 323 322 323 331 334 335 335 335
300 300 301 301 301 301 301 301 301 302 302 302 302 303 303 304 303 303 303 300 298 303 305 302 298 299 300 300 301 302 302 301 300 301 300 301 301 301 301 301 302 300 302 305 305 306 304 302 304 305 307 307 307 309 308 307 307 309 310 311 312 312 312 312 312 313 312 314 315 317 319 320 324 326 326 327 328 328 324 321 324 326 326 331 333 334 335 335
301 300 300 301 300 300 301 301 301 301 302 302 303 303 303 303 302 301 301 296 298 305 305 301 299 299 300 300 303 302 301 301 301 300 301 301 301 301 301 301 302 301 303 305 306 307 304 302 305 306 307 307 308 308 308 309 308 307 307 308 309 309 309 309 310 310 310 311 312 314 316 319 321 323 324 325 326 327 323 319 325 329 329 331 332 333 335 335
300 300 300 300 300 300 301 301 301 301 302 302 303 303 302 302 302 300 297 294 299 306 305 301 300 300 300 301 304 302 300 301 300 301 301 301 301 301 301 301 302 302 304 305 306 306 304 304 306 307 307 307 308 308 308 309 309 308 308 307 308 308 308 308 308 309 309 310 311 313 315 317 318 320 323 324 323 325 324 322 324 329 331 332 332 333 334 334
300 300 300 300 300 300 300 301 301 301 302 302 302 301 301 301 301 297 294 295 302 306 305 301 300 300 300 302 304 302 300 300 300 301 302 302 302 302 301 301 301 302 304 305 306 306 305 304 305 307 307 306 307 308 309 309 309 310 310 310 310 309 309 309 309 309 309 310 311 312 313 313 315 319 322 323 323 324 325 325 324 326 329 331 332 332 334 334
300 300 300 300 300 300 300 300 301 301 302 301 300 300 300 299 298 295 294 298 303 304 303 301 301 300 300 302 302 300 300 300 300 300 302 302 302 302 302 301 301 302 304 305 306 306 306 305 306 307 305 305 307 307 308 309 310 310 310 311 311 310 310 310 309 309 309 309 309 310 311 312 314 318 321 321 323 324 325 325 325 327 327 328 331 332 333 334
300 300 300 299 300 300 300 300 300 301 301 299 298 299 299 298 297 296 297 299 302 303 301 300 301 300 302 303 301 300 300 300 300 300 301 302 302 302 302 302 302 302 303 305 307 306 305 306 307 306 304 304 305 305 307 308 308 308 309 310 310 310 310 310 310 310 309 308 309 309 309 310 312 315 317 319 322 323 324 324 325 327 328 327 329 331 332 334
299 299 299 299 299 299 300 300 301 301 299 297 297 298 298 298 299 299 299 299 301 302 300 300 301 301 302 302 300 300 300 299 300 300 301 302 302 302 302 302 303 303 303 305 306 306 305 306 306 305 305 305 304 304 305 305 305 306 307 309 310 310 311 310 310 310 310 308 309 310 307 305 307 310 312 315 319 322 323 324 324 326 328 329 329 330 332 333
299 299 299 299 299 299 300 300 301 300 297 296 297 297 298 299 300 299 299 299 300 301 300 300 300 301 303 301 300 300 299 299 300 300 301 301 302 303 303 303 303 303 304 304 305 305 305 306 306 306 306 305 305 305 305 303 304 305 305 307 310 311 312 310 309 310 311 309 309 309 307 305 306 307 309 312 317 319 319 320 321 323 327 329 330 332 332 333
299 299 299 299 299 299 299 299 301 299 296 296 296 297 299 299 300 300 299 299 299 300 300 300 300 302 303 300 300 299 299 300 300 300 301 301 302 303 303 303 304 304 304 304 305 305 306 307 306 306 305 305 306 306 304 303 303 304 304 304 307 311 312 310 310 310 309 309 308 308 307 307 307 307 309 312 317 318 318 318 319 321 324 327 328 329 329 331
299 299 299 299 299 299 298 299 300 298 296 296 296 298 299 298 299 300 299 299 300 300 300 299 300 302 302 299 300 300 300 300 300 300 301 301 302 303 303 303 304 304 305 305 305 306 307 307 306 306 306 306 305 304 304 303 302 302 304 303 304 308 310 310 311 310 309 309 308 307 307 307 307 309 311 312 314 314 315 317 320 321 322 325 325 326 326 327
298 299 299 299 298 298 298 299 299 297 296 296 296 298 298 298 298 299 300 301 302 301 300 299 299 302 302 299 299 300 300 300 299 300 301 301 302 303 303 304 305 305 306 306 305 306 307 306 306 306 306 306 305 304 304 303 302 302 303 304 303 305 309 311 311 310 309 309 309 308 307 306 306 309 310 311 313 312 311 312 316 319 320 323 324 325 325 325
298 298 298 298 298 298 298 299 299 297 296 296 296 298 298 298 298 298 299 301 302 302 301 299 300 301 300 299 299 299 300 299 300 300 300 301 301 302 303 304 305 304 305 306 305 305 306 306 306 305 306 306 305 305 304 303 302 301 301 303 304 306 309 310 311 311 309 309 310 310 309 309 308 308 309 309 311 313 314 315 317 318 320 322 323 323 323 324
298 298 298 298 298 298 298 299 299 297 296 296 297 298 298 298 298 297 298 300 301 300 300 300 300 299 298 299 300 299 299 299 300 300 300 301 302 302 303 304 304 304 304 304 304 304 304 304 305 304 304 304 304 304 303 303 301 301 301 303 305 307 307 308 310 310 308 309 311 311 311 312 312 312 311 312 311 311 313 314 316 317 319 321 322 322 322 323
298 298 298 297 298 298 298 299 298 297 296 296 297 298 299 301 301 298 299 300 299 299 299 300 300 299 298 299 300 299 299 300 301 301 300 300 302 303 304 304 305 304 304 304 304 303 303 303 303 303 303 303 303 303 303 303 303 303 303 304 305 305 305 306 308 309 308 310 312 311 311 310 311 311 311 312 312 312 312 311 312 314 316 318 320 322 321 322
298 297 297 297 298 298 298 299 298 297 297 296 297 299 300 300 301 299 300 300 299 299 300 299 299 300 299 299 299 298 299 301 301 301 300 300 303 304 304 304 305 304 304 303 304 304 303 303 304 303 304 304 304 304 304 304 304 305 305 305 305 305 306 306 307 308 310 311 312 311 312 311 311 311 311 311 312 313 313 312 313 313 314 316 318 320 322 321
297 297 297 298 298 298 298 299 298 297 297 296 298 299 299 299 299 298 299 301 299 298 298 298 299 299 299 299 298 298 300 301 301 301 300 300 304 304 304 304 303 303 303 303 304 304 304 304 304 303 303 304 304 304 305 305 305 306 306 305 305 305 307 306 308 309 310 312 311 311 313 313 312 313 313 314 314 314 314 314 315 316 316 317 317 319 322 323
297 297 297 298 298 298 299 298 297 298 298 298 298 298 298 299 299 298 299 301 299 298 298 298 299 299 299 300 298 297 301 301 300 300 299 300 303 303 303 303 303 303 303 303 303 304 305 304 304 303 303 304 305 305 305 304 305 306 305 304 305 307 308 307 308 309 308 310 311 311 312 312 311 312 312 313 314 315 315 315 316 318 318 319 319 320 322 324
296 297 297 298 298 298 298 297 297 297 298 298 298 298 298 299 299 299 298 298 299 297 296 296 298 299 298 298 297 297 300 300 299 300 299 300 302 303 303 303 302 303 302 302 303 304 305 304 304 304 304 304 305 305 305 305 305 305 305 306 308 308 307 306 306 307 308 309 310 311 311 311 310 310 310 311 313 314 316 316 317 319 320 320 321 323 323 324
296 297 298 298 298 297 297 297 297 297 297 298 298 298 298 299 299 299 297 296 298 296 295 296 298 299 297 297 297 297 298 299 299 299 298 299 301 303 303 302 302 302 302 302 303 304 304 304 304 304 304 305 305 305 306 305 305 306 306 307 308 307 306 306 307 308 309 310 310 310 311 312 311 311 311 311 311 312 315 318 319 320 321 322 322 323 323 322
296 297 298 298 297 296 297 298 297 296 297 298 297 298 299 299 299 299 297 296 296 295 296 298 298 298 298 298 297 298 299 299 298 298 298 298 300 303 303 301 301 302 301 301 302 303 304 304 304 304 304 305 306 306 306 305 305 306 307 307 308 307 306 307 308 308 310 311 309 309 311 312 311 311 311 311 312 312 313 316 320 321 321 321 320 318 317 317
295 297 298 298 297 297 298 298 298 297 298 298 298 299 298 298 299 298 298 297 295 295 297 298 298 297 298 297 297 298 298 297 298 299 298 298 300 303 302 300 301 302 301 301 303 303 302 303 304 304 304 304 305 305 306 306 305 306 307 308 308 307 307 308 308 308 309 309 308 309 311 311 311 310 310 310 311 313 313 314 316 316 315 314 312 311 311 311
294 297 298 298 297 297 298 298 298 298 298 298 298 299 298 298 298 297 299 297 295 295 297 297 297 297 297 297 297 298 297 297 298 298 297 298 299 301 302 301 300 300 301 301 303 302 302 303 303 304 304 303 303 304 305 306 307 307 307 307 307 306 307 307 307 307 308 308 309 310 311 311 310 310 309 309 311 312 312 311 309 308 308 307 307 307 308 307
294 298 298 297 297 297 297 298 299 299 299 298 299 299 298 297 296 296 299 297 293 295 297 297 298 297 297 297 297 297 297 297 297 297 298 298 299 300 301 301 299 299 301 301 302 301 301 302 302 304 304 302 302 303 304 306 307 307 306 307 308 307 306 305 306 307 307 309 310 308 309 310 309 308 308 308 309 308 308 307 305 304 304 305 304 305 305 306
295 298 297 297 297 297 297 298 299 299 299 299 299 298 297 296 296 298 299 295 293 295 296 297 298 297 296 297 297 297 297 297 297 297 298 299 299 299 300 300 299 300 301 301 302 301 301 302 303 304 304 302 302 303 303 305 306 306 306 308 310 309 307 305 305 306 307 310 309 306 306 308 309 308 307 306 305 304 304 303 303 302 302 303 303 303 303 304
296 298 297 297 297 297 298 299 299 299 299 299 298 297 297 296 297 299 297 293 294 297 296 296 298 297 296 295 296 297 296 297 297 297 298 298 298 298 298 299 299 299 300 300 301 300 300 302 301 302 303 301 301 304 304 304 305 306 307 309 309 310 309 307 305 305 308 310 309 305 305 307 309 307 305 303 302 302 302 301 301 301 301 302 302 302 302 303
297 298 297 297 297 297 298 299 299 298 299 298 296 296 297 298 297 295 293 293 294 296 296 296 297 297 295 294 295 296 296 297 297 296 297 297 298 298 298 298 298 298 298 299 299 299 299 299 299 301 303 300 300 303 305 306 306 307 308 309 309 309 309 309 308 307 309 310 308 305 303 305 307 304 302 301 301 301 300 300 300 300 300 301 301 302 302 302
297 297 297 297 297 296 297 298 299 299 298 296 295 295 298 300 297 293 293 294 293 294 296 297 297 295 294 294 295 295 295 297 296 296 297 297 298 298 298 297 297 298 298 298 299 298 298 299 299 300 301 300 299 301 303 305 305 306 308 309 308 309 310 310 309 309 310 310 307 303 303 306 306 303 301 300 300 300 300 300 300 300 300 300 300 301 301 301
297 297 297 297 296 296 297 298 298 298 297 295 295 298 301 299 295 292 294 294 293 295 297 296 295 294 293 294 294 294 296 297 296 296 296 297 298 297 297 297 297 297 297 298 298 297 298 298 298 299 299 299 299 298 300 302 304 306 307 308 308 308 309 310 309 309 309 309 307 304 306 309 308 304 301 300 300 299 299 299 300 300 300 300 300 300 300 300
297 297 297 297 296 296 297 298 298 298 296 295 297 300 299 296 291 292 296 295 295 297 296 294 293 294 294 293 293 294 295 296 296 295 296 297 297 297 297 297 296 296 297 298 297 297 297 297 298 300 299 298 297 297 299 302 305 306 305 307 307 306 307 309 309 309 309 309 308 307 308 308 307 305 302 300 299 298 299 299 299 300 300 300 300 299 300 300
296 296 297 296 295 296 297 297 297 297 295 297 301 298 295 294 292 293 298 298 296 297 296 294 293 294 295 293 293 295 295 296 296 295 295 296 296 297 297 297 296 296 296 297 297 296 297 298 298 299 298 297 296 297 300 301 302 303 303 303 304 304 306 309 309 308 308 309 309 309 309 307 307 307 301 298 298 298 298 299 299 299 299 299 299 299 299 299
296 296 296 295 294 295 296 296 296 296 296 300 302 296 293 295 293 292 297 298 296 295 295 294 293 293 295 294 294 295 296 296 295 295 295 295 296 297 296 296 296 294 295 296 296 296 297 299 298 297 297 297 297 298 301 301 300 301 300 299 302 305 307 307 308 308 306 307 308 308 308 308 309 307 301 297 298 298 298 298 298 299 299 298 299 299 299 299
295 296 296 295 294 294 296 296 294 295 298 300 300 295 292 294 293 292 295 297 296 295 295 295 293 292 293 294 295 295 296 296 295 295 295 294 295 296 296 295 295 294 293 295 296 295 297 299 298 297 296 296 297 299 301 300 299 300 299 299 302 305 305 304 306 307 306 305 306 306 306 308 307 303 298 297 298 297 298 298 298 298 297 297 298 298 298 299
295 296 296 294 293 294 296 295 293 296 300 300 298 295 293 295 294 293 294 296 296 296 295 295 294 293 293 294 295 296 296 295 295 295 295 294 295 296 295 294 294 293 292 294 295 295 297 297 296 296 297 296 298 299 299 299 299 300 300 299 299 301 302 303 303 305 305 304 304 304 306 307 303 298 297 297 297 297 297 297 297 296 296 297 297 298 298 298
294 296 296 293 293 295 295 294 295 298 299 297 294 293 294 296 296 293 293 295 296 296 296 296 295 294 295 295 295 295 294 294 295 295 295 295 295 296 294 292 292 291 291 293 294 295 297 296 295 296 296 296 298 298 297 298 298 298 298 298 297 297 299 300 300 301 301 300 301 303 305 305 300 296 297 297 297 297 297 296 296 296 296 296 297 297 298 298
293 297 296 292 293 294 294 295 295 293 294 293 292 293 294 297 297 294 292 292 294 295 295 296 296 295 296 296 296 295 294 294 295 294 295 295 294 295 293 290 290 290 290 291 292 294 297 296 295 297 296 295 296 296 296 297 298 297 296 297 297 296 297 296 295 298 298 297 300 301 302 302 299 296 297 297 296 296 295 295 295 295 295 296 296 296 297 296
294 296 295 292 293 294 295 296 292 290 292 293 292 293 294 296 296 293 292 292 293 294 295 296 297 296 296 296 295 295 294 294 294 294 296 295 295 295 292 288 288 289 289 289 290 294 296 296 296 297 295 294 295 295 295 296 298 298 297 297 296 295 296 295 293 296 297 297 298 300 300 301 299 296 297 297 296 295 294 294 294 294 294 295 296 296 296 296
295 295 293 291 292 294 295 295 291 291 293 290 288 290 291 293 294 292 292 293 293 294 295 296 296 296 295 294 295 296 295 294 294 295 296 295 295 295 291 288 288 289 289 291 293 295 296 296 296 296 294 293 295 296 295 294 296 297 295 296 295 294 296 296 295 297 298 298 298 298 299 301 300 298 297 296 295 294 293 292 292 292 293 294 296 296 296 295
293 292 292 291 292 294 296 294 293 293 292 290 291 291 290 291 292 292 292 293 293 294 295 295 295 296 294 292 293 295 293 291 293 294 294 293 294 293 290 288 288 289 290 292 294 295 295 295 295 293 290 292 294 295 294 293 294 295 294 295 295 294 295 296 295 296 296 297 298 297 297 300 301 299 297 296 295 294 293 291 291 291 291 292 295 296 295 294
292 291 292 291 290 293 293 292 293 295 293 292 293 292 292 291 290 291 292 292 291 292 294 294 294 294 293 290 291 292 290 289 291 292 291 291 291 291 290 289 288 289 292 292 293 295 295 295 294 291 289 290 291 291 291 292 293 294 294 294 294 294 294 294 295 294 293 294 296 297 297 298 299 297 296 296 294 293 292 291 290 290 290 291 293 295 295 293
293 293 293 292 290 290 289 288 290 293 293 292 291 290 291 292 290 289 290 291 291 290 291 292 292 292 291 289 292 294 290 288 288 288 289 289 289 289 289 288 288 290 292 291 291 293 293 293 294 292 290 290 290 290 291 293 294 293 293 293 293 293 292 292 294 294 294 293 295 296 295 295 296 295 296 296 294 292 291 290 289 289 290 290 291 294 295 293
293 293 291 292 291 290 289 289 289 291 291 290 289 289 290 292 290 288 289 290 290 289 290 290 290 292 290 288 291 292 288 288 287 286 287 288 287 289 289 288 288 290 291 290 290 290 289 289 290 292 292 292 291 292 292 293 292 292 291 291 291 291 291 292 293 294 294 293 293 294 295 295 295 294 295 295 293 291 290 289 289 289 289 290 289 292 294 292
291 291 287 287 290 290 289 289 290 291 290 289 287 289 291 292 290 289 289 289 288 288 290 290 289 290 289 287 289 289 288 290 290 288 288 287 287 288 288 289 289 289 289 288 288 289 288 287 289 290 292 292 291 291 291 290 290 290 290 290 290 290 291 291 292 292 292 293 293 294 294 294 294 294 295 293 291 290 289 288 289 288 289 289 289 291 293 292
288 288 285 284 287 288 288 288 289 290 290 290 289 290 292 293 291 290 288 288 288 287 288 289 288 288 288 287 287 288 289 290 289 288 288 288 288 288 288 289 289 288 288 288 288 287 287 288 289 289 289 289 289 289 289 289 289 289 290 290 290 291 291 291 291 291 292 292 293 293 293 294 294 294 293 291 289 289 288 288 289 288 289 289 288 290 292 290
289 289 287 286 287 286 286 287 288 289 289 290 290 290 290 292 292 289 288 288 288 287 287 288 289 288 288 287 287 288 289 288 288 289 287 287 288 287 287 289 289 288 288 288 287 287 287 288 288 287 288 288 288 288 289 289 290 290 291 291 291 291 291 292 292 292 292 293 293 293 293 294 295 293 291 290 289 288 288 288 288 288 288 288 289 290 291 289
288 287 287 289 289 288 287 287 287 288 288 288 290 289 289 291 291 289 288 287 287 288 288 289 289 288 287 287 287 287 288 288 289 289 288 288 288 288 288 288 288 288 288 287 287 287 287 287 287 287 288 289 288 289 290 290 290 291 291 291 291 292 292 293 293 293 293 293 294 294 294 295 294 291 290 289 289 288 288 288 288 288 288 288 289 290 289 288
287 286 286 289 290 289 288 287 286 288 290 289 289 289 290 290 289 288 288 287 286 287 288 288 288 288 287 287 287 288 289 289 288 289 289 288 288 288 288 288 288 288 287 287 287 287 286 287 287 287 289 289 288 289 289 290 291 293 294 293 293 292 293 293 293 294 294 294 293 295 295 294 292 290 289 289 288 288 288 288 287 287 287 288 289 289 288 287
Wind_Speed
16 17 16 16 17 16 16 17 17 17 17 17 17 17 17 17 17 17 17 17 16 16 17 16 16 17 17 18 20 18 10 10 11 14 17 17 16 16 18 20 20 18 15 13 14 13 11 11 13 14 8 1 1 2 3 3 3 4 6 8 10 12 12 8 9 10 7 7 4 5 8 9 9 5 4 2 6 9 6 6 6 5 4 1 3 4 8 14
17 17 16 16 16 15 17 17 17 16 16 16 17 17 17 17 17 16 16 16 16 16 16 15 16 17 19 20 20 15 7 8 10 15 14 16 18 18 20 21 19 16 14 11 12 11 9 10 11 11 7 2 1 1 2 1 4 6 6 8 12 11 8 4 5 5 5 8 5 6 7 7 10 7 4 6 10 9 8 9 7 8 7 4 4 6 11 14
17 17 16 17 16 16 17 17 17 17 17 17 18 18 18 17 16 15 15 15 15 16 15 15 16 17 20 21 20 13 3 3 7 13 15 18 19 19 21 19 18 18 14 10 9 7 5 6 8 8 6 3 1 1 2 1 3 7 7 9 11 8 8 4 4 4 5 7 8 7 6 6 7 5 4 8 10 7 9 9 6 10 10 7 6 8 12 14
17 17 17 18 18 18 17 17 18 18 18 19 19 19 19 18 16 15 14 14 15 15 14 14 16 19 20 19 18 10 2 2 5 11 17 18 17 17 20 20 19 20 16 10 7 5 3 3 4 5 4 3 1 2 5 3 3 5 8 11 7 4 7 5 7 8 10 10 8 9 7 6 3 2 5 8 9 8 9 8 6 8 6 8 8 9 13 14
17 18 18 18 19 18 17 18 18 19 19 19 19 19 19 18 17 15 13 12 13 14 13 14 16 19 19 16 16 9 3 1 7 13 18 18 17 15 19 22 20 19 17 11 7 5 3 3 4 3 2 3 1 3 5 5 4 5 11 14 10 8 7 7 10 10 11 10 9 10 8 6 5 4 7 10 11 9 5 4 4 5 2 8 10 11 13 14
17 18 18 18 18 19 19 19 19 20 19 20 20 20 20 18 17 14 12 11 11 12 11 13 16 18 17 13 18 13 2 2 8 16 20 19 18 15 19 23 20 18 15 10 7 5 5 4 4 4 2 3 4 4 4 5 6 8 11 13 13 11 9 9 12 13 12 11 10 9 10 10 11 9 7 10 14 11 3 2 2 2 2 7 10 11 12 14
17 18 19 18 18 19 20 20 20 20 20 20 21 20 19 17 15 12 11 10 9 10 10 12 15 17 15 10 13 15 9 5 11 18 21 20 18 16 19 21 17 15 13 9 8 5 6 6 5 5 4 3 4 5 6 7 8 11 12 11 12 12 11 10 11 13 13 13 12 10 11 12 13 11 7 10 13 13 5 2 1 1 4 8 9 11 12 14
18 18 19 19 19 20 20 20 21 21 21 21 21 20 18 16 15 12 11 9 7 8 8 11 14 14 15 10 4 8 9 8 15 20 21 20 19 18 19 17 14 13 10 6 6 5 5 5 4 4 5 4 4 5 6 8 9 13 13 12 12 12 13 11 10 13 15 14 12 12 14 13 12 12 13 15 13 11 6 1 2 2 5 8 9 11 12 12
18 19 19 20 20 21 21 21 21 21 21 21 21 20 17 17 15 13 10 6 5 6 6 10 13 12 14 8 1 5 9 11 16 19 20 21 20 19 16 12 12 12 8 5 4 3 3 3 3 3 4 5 6 7 7 8 7 8 11 12 13 14 14 13 12 12 13 12 10 15 17 14 11 11 15 18 15 13 7 4 6 4 6 7 9 11 11 12
19 19 20 21 20 21 21 21 21 22 22 22 22 19 17 17 14 10 6 4 4 4 6 10 12 10 12 8 3 6 9 13 16 18 19 20 20 19 14 9 10 10 7 7 4 2 3 3 3 3 3 6 7 8 8 9 8 9 13 14 15 17 16 14 14 12 11 11 12 16 18 17 12 9 12 13 11 11 8 8 8 8 9 8 8 9 10 11
20 20 21 21 21 22 22 22 22 23 23 22 21 19 18 15 10 7 4 6 6 5 7 10 10 8 8 8 7 8 10 14 18 20 19 20 21 19 14 10 9 8 7 8 6 3 3 4 3 2 2 3 5 7 9 8 9 11 13 15 16 17 17 17 17 14 11 10 11 13 16 18 13 14 17 11 8 8 8 9 8 9 11 10 9 9 8 9
20 20 21 21 22 23 22 23 23 24 24 21 20 20 17 10 7 6 5 7 7 5 8 10 10 7 4 5 8 8 12 16 19 20 18 19 20 18 15 13 10 8 5 5 6 4 3 4 2 4 4 4 5 7 6 6 8 9 10 12 14 15 16 17 16 14 11 9 9 9 14 16 16 23 22 11 10 11 12 12 10 9 10 11 10 8 8 8
20 20 21 22 23 23 23 23 24 25 23 21 21 18 12 7 6 6 6 7 6 6 9 11 10 5 2 2 5 11 16 19 21 18 16 18 19 18 17 18 14 10 6 5 5 3 3 4 3 5 5 5 6 6 7 10 9 10 9 9 11 12 12 10 10 13 14 10 7 6 10 14 19 26 21 12 13 12 14 16 13 10 7 10 10 7 7 8
20 20 21 22 23 23 24 24 24 25 22 22 20 13 8 7 8 7 6 4 4 6 8 12 10 2 2 2 2 13 18 18 21 20 19 21 20 17 18 20 14 8 6 5 5 3 2 2 3 5 5 6 6 6 9 9 8 9 9 8 6 8 8 4 3 9 12 11 12 10 11 13 16 18 16 13 14 13 16 19 17 13 8 7 7 7 7 6
20 20 21 22 23 25 26 24 24 24 23 23 16 8 9 11 10 8 7 2 2 7 9 13 11 2 3 4 3 16 19 18 22 21 20 23 21 15 17 19 10 7 8 7 6 3 1 3 3 4 4 5 5 6 8 7 6 6 7 7 6 7 8 7 7 9 10 10 16 15 10 12 14 13 13 11 9 9 14 18 18 17 13 9 6 6 7 6
20 20 21 22 23 25 27 25 24 23 24 22 11 8 11 13 12 9 8 5 5 8 12 13 9 3 4 4 10 18 17 19 22 19 19 22 20 14 17 15 8 10 10 5 3 2 2 3 3 3 4 4 5 6 6 6 6 5 6 7 7 8 8 9 8 9 14 10 15 18 12 10 9 8 9 11 10 11 13 15 16 17 15 12 9 7 8 8
20 20 21 23 24 26 26 24 22 23 25 19 7 9 12 14 15 13 8 6 6 7 11 15 10 2 3 5 11 14 15 21 21 19 20 22 20 14 14 10 7 12 7 5 3 1 2 2 2 2 3 4 4 5 5 6 7 5 6 7 8 9 9 10 7 4 11 12 13 18 15 14 11 7 7 9 11 12 14 15 15 16 15 13 12 10 10 11
20 20 22 23 24 26 25 23 22 23 26 16 5 8 10 12 17 20 14 7 2 1 6 15 13 1 1 8 10 12 19 21 18 17 20 22 19 13 11 7 6 10 4 4 4 4 2 1 2 3 3 4 4 4 6 8 8 7 7 6 7 7 7 9 8 5 8 11 13 15 15 17 16 14 12 11 11 10 11 12 12 14 14 13 12 12 12 11
20 21 22 23 25 25 22 21 20 23 25 13 7 8 7 6 9 16 20 14 5 2 3 8 9 2 3 11 10 15 20 15 11 14 19 23 18 9 9 8 4 5 5 2 6 7 3 3 3 4 5 5 6 7 9 12 12 12 11 9 8 7 8 10 9 8 11 12 13 14 15 16 15 14 13 12 13 13 14 12 11 11 12 11 11 11 11 11
21 21 23 24 24 22 19 18 18 22 23 10 7 6 4 3 2 5 12 12 6 5 3 1 3 0 5 9 11 19 17 7 7 12 19 23 16 7 7 8 4 3 8 8 7 5 2 5 5 6 9 10 11 11 13 15 15 15 12 10 9 8 10 11 9 8 8 8 11 13 15 17 15 14 13 11 11 13 16 15 13 12 12 11 12 11 12 12
21 22 24 23 22 19 16 14 15 19 18 12 10 7 4 2 2 1 4 4 3 2 2 1 3 3 7 9 10 16 9 4 7 10 20 24 12 6 7 9 6 6 9 10 7 3 2 5 6 8 11 12 13 13 14 14 13 13 10 10 9 7 9 11 11 9 5 4 9 12 14 16 15 13 12 11 12 12 14 15 14 14 14 12 13 13 13 12
21 23 23 21 19 16 13 10 12 16 16 20 19 13 6 3 2 2 3 1 2 2 2 2 2 3 7 5 7 11 3 4 10 12 23 24 11 7 9 9 9 8 10 10 7 5 4 5 8 10 10 10 12 12 12 13 12 10 8 8 7 4 7 9 8 7 4 4 8 10 10 12 13 10 9 10 11 11 12 14 14 15 14 12 13 13 11 10
22 23 21 18 16 15 11 7 8 14 19 23 21 12 6 5 3 1 2 0 2 2 1 2 2 5 8 4 8 13 3 3 9 13 23 21 10 8 8 9 10 8 9 11 9 7 6 8 11 11 9 10 12 10 8 8 8 7 6 7 5 2 5 6 3 3 5 5 7 8 8 10 11 10 8 9 10 10 12 15 14 14 15 14 12 11 10 10
22 22 19 16 15 12 7 7 7 12 18 19 17 12 5 4 2 2 1 0 1 2 1 2 1 4 7 6 10 11 3 2 5 12 20 18 10 7 6 8 9 7 9 13 11 7 6 9 11 11 11 11 10 7 6 6 5 6 7 6 2 2 4 8 6 5 6 5 6 6 7 8 10 10 9 7 7 8 10 12 13 12 13 14 12 9 10 10
22 21 18 16 15 7 3 8 9 9 12 12 12 11 6 4 1 2 0 1 1 2 1 1 1 4 8 10 12 8 2 2 6 10 14 14 10 6 4 5 5 7 11 14 10 5 5 7 8 12 13 8 5 5 4 6 5 4 6 5 2 3 8 11 10 5 4 5 6 4 6 5 3 5 5 3 5 7 7 8 10 10 11 12 11 9 6 6
21 19 17 16 14 6 3 5 8 6 6 7 10 9 6 4 0 2 1 1 2 3 4 3 2 8 12 11 14 7 2 5 11 13 14 15 10 3 4 5 2 4 9 10 6 1 4 7 7 11 13 10 5 4 2 5 5 2 2 4 4 5 8 10 9 5 4 3 2 3 6 3 1 1 2 4 5 5 5 6 8 8 7 7 7 9 12 13
18 15 15 15 14 9 4 2 7 6 4 4 9 9 7 3 2 2 2 1 3 2 4 5 3 9 13 12 15 7 1 8 12 11 17 17 9 1 4 7 4 4 5 4 3 2 5 11 10 10 10 9 7 5 3 3 5 2 1 4 5 6 8 7 6 6 4 1 1 3 5 4 4 3 5 5 5 3 2 3 6 9 11 13 14 15 17 16
14 11 12 13 13 12 8 4 5 7 4 6 9 9 6 1 2 3 1 2 3 2 1 3 3 7 11 9 10 6 2 7 7 10 19 17 9 2 2 7 7 8 6 3 5 6 4 9 12 12 10 8 7 9 9 6 4 3 4 3 5 5 6 5 4 5 4 2 3 4 4 4 3 2 3 3 4 5 8 13 16 17 17 17 17 17 16 15
10 8 11 12 11 11 10 8 6 5 6 8 9 9 2 3 1 2 1 2 2 2 1 3 3 7 11 7 5 8 3 3 4 9 16 13 12 6 1 4 8 8 4 2 3 6 5 5 8 9 9 9 10 10 8 5 3 4 5 5 6 3 3 3 2 2 1 3 1 2 4 4 0 2 2 2 5 9 12 15 16 16 17 16 16 16 15 14
7 6 10 11 11 9 7 8 9 7 7 9 10 6 3 3 1 0 3 1 2 2 1 3 5 7 13 8 6 10 7 4 5 8 8 7 11 9 1 1 6 4 2 2 2 8 8 4 1 2 5 8 10 8 4 3 2 4 5 4 5 3 1 2 1 1 2 2 2 1 4 5 1 3 6 7 8 10 11 12 14 16 17 16 15 14 15 14
5 5 9 10 12 11 5 5 9 8 8 11 8 2 3 1 1 3 3 1 2 3 2 4 6 7 11 8 5 11 8 5 8 8 7 6 7 10 6 3 5 4 3 4 5 11 9 2 2 2 1 8 11 4 1 3 4 3 3 3 3 2 2 1 1 1 0 3 4 3 4 6 3 5 9 10 11 14 13 13 15 16 16 15 14 14 14 14
3 4 7 10 12 13 8 6 9 9 10 10 4 1 2 1 2 2 1 2 2 3 3 3 7 9 8 3 4 11 8 4 9 9 7 7 7 11 11 9 9 6 6 8 9 12 7 2 8 6 1 9 14 6 3 2 3 5 4 3 3 1 0 1 1 1 1 3 5 4 2 4 5 8 9 11 13 15 14 13 14 15 15 15 14 14 13 13
3 4 6 9 12 13 11 8 9 9 10 8 1 1 1 2 3 0 2 3 1 2 3 4 7 9 7 4 6 11 5 2 10 10 6 6 6 10 12 12 11 7 5 8 8 10 5 0 8 10 3 9 13 8 6 6 6 9 7 5 4 2 3 4 3 2 1 3 5 3 1 2 7 8 9 12 13 13 13 13 12 14 14 14 15 15 14 14
4 4 6 9 12 14 12 9 8 10 10 5 1 0 4 3 1 0 1 2 1 2 3 4 7 5 3 4 5 8 4 3 9 11 6 6 6 7 10 12 14 9 5 6 5 7 6 2 7 11 7 10 11 6 5 7 7 6 5 4 4 3 3 4 3 4 3 2 3 2 1 2 5 4 5 8 10 11 12 12 12 14 14 13 14 16 16 16
4 2 5 9 13 14 12 9 9 11 8 2 1 2 4 2 1 1 1 2 1 3 2 1 5 3 2 3 3 5 3 1 8 9 4 5 6 7 8 9 13 11 6 6 5 5 6 4 4 8 8 9 11 7 6 7 4 3 4 2 3 4 3 3 2 2 4 2 2 2 2 3 5 6 3 6 9 13 13 14 16 16 15 14 14 16 16 15
3 1 4 10 15 15 12 10 10 10 5 0 2 4 2 0 2 3 0 1 0 3 4 1 3 2 3 2 3 6 2 1 8 7 3 4 4 6 7 6 10 11 8 6 5 5 5 6 6 10 9 9 11 8 6 6 3 3 4 4 5 4 3 4 2 3 4 0 2 1 4 4 4 5 6 10 13 16 17 18 18 17 18 17 16 15 15 15
2 1 3 11 18 17 13 12 10 6 2 1 4 3 1 0 2 3 1 1 0 2 3 1 3 2 3 2 3 9 6 2 6 6 4 3 2 4 5 4 8 11 8 4 3 3 4 8 6 7 10 12 11 7 3 4 5 3 5 6 7 4 2 3 3 2 3 2 2 1 3 4 5 2 7 14 16 17 17 18 18 18 19 18 16 16 16 16
1 1 2 11 19 17 12 12 9 3 2 4 5 3 1 1 2 3 2 1 1 1 2 2 2 1 1 2 3 9 9 5 6 6 4 3 2 4 4 3 6 9 8 5 3 2 4 7 3 2 9 12 10 6 2 5 7 3 2 5 4 1 2 4 3 2 4 3 2 2 1 1 3 3 7 12 14 14 15 16 18 19 19 17 15 15 16 15
0 0 1 11 18 16 12 10 6 2 3 3 3 2 1 1 2 2 2 1 1 1 1 1 1 0 1 2 4 6 7 5 5 5 2 2 2 3 4 3 4 8 9 5 4 3 3 4 1 2 10 11 6 5 3 5 6 1 0 4 4 3 3 4 3 2 3 3 3 4 3 4 6 5 7 11 12 13 14 13 14 16 17 15 14 14 14 14
2 0 1 12 18 14 10 7 5 4 4 3 1 1 1 1 2 1 1 1 1 1 1 1 1 1 2 2 3 3 4 5 5 3 1 1 3 2 4 4 6 9 9 4 2 2 2 2 4 6 11 8 1 5 4 5 6 5 5 7 7 4 1 1 2 2 3 4 3 3 2 4 5 4 8 11 11 12 13 12 11 12 13 13 13 13 12 13
2 1 2 14 18 10 5 7 7 4 2 3 2 1 1 1 1 1 1 2 1 1 1 1 1 1 2 2 2 2 4 5 3 3 2 1 0 2 3 3 6 9 8 5 2 3 2 2 5 8 8 5 2 3 2 4 5 6 6 6 6 6 3 2 1 3 2 3 3 4 4 2 4 4 8 10 10 11 12 12 11 11 12 12 11 12 12 12
2 1 3 17 18 6 4 5 4 2 2 2 1 0 1 1 2 2 2 1 1 1 1 0 1 1 1 1 2 2 3 4 3 2 2 2 2 2 1 3 6 7 6 4 3 3 3 3 5 7 6 7 6 2 2 2 3 4 6 5 5 5 4 3 3 3 3 2 1 3 3 1 4 4 8 9 10 11 11 12 12 11 11 11 10 11 11 11
2 0 4 17 15 3 4 4 1 2 2 1 2 0 1 2 1 1 2 1 1 1 0 1 1 0 0 0 1 1 3 3 3 3 2 2 2 1 2 4 9 8 4 2 2 2 3 2 4 7 6 4 2 2 3 0 1 2 4 5 5 4 4 3 4 4 3 3 2 2 3 2 6 2 6 9 11 12 11 12 12 10 9 10 10 10 9 10
2 1 3 16 14 1 1 2 2 1 1 2 2 1 1 1 1 1 1 1 1 0 1 1 0 1 0 1 1 1 2 2 2 2 2 1 1 2 3 6 10 6 3 2 3 3 2 1 3 6 5 2 2 3 1 1 2 4 3 2 4 5 4 3 3 2 2 3 2 3 4 3 6 1 9 12 14 14 11 10 11 10 9 9 9 8 8 9
1 1 2 12 16 8 2 1 2 2 1 1 2 2 1 1 1 1 0 0 1 1 1 0 0 2 0 1 2 1 2 2 1 1 1 2 3 1 1 7 9 4 3 4 5 4 2 2 3 3 4 3 3 3 3 4 5 5 4 4 5 5 4 3 2 2 3 2 1 5 6 1 1 9 13 13 13 13 11 10 9 9 9 8 8 7 8 8
1 1 1 5 10 8 3 1 2 3 2 2 2 2 0 2 2 1 0 0 1 1 0 0 0 1 0 1 2 2 3 3 2 2 1 4 3 0 4 8 6 4 5 8 8 3 1 2 4 5 5 6 7 8 7 7 8 9 10 12 10 6 4 4 3 3 3 3 5 8 9 10 12 13 11 10 12 11 10 10 10 10 10 9 8 8 7 8
1 1 1 1 2 3 2 2 2 2 1 0 2 3 2 2 1 0 1 0 1 1 1 1 0 1 1 1 1 1 2 2 2 1 3 5 3 3 7 5 3 5 5 7 8 4 1 3 5 7 10 11 11 13 12 10 11 13 14 15 13 10 6 5 6 6 3 4 6 7 7 11 13 12 9 9 9 9 10 10 10 10 11 10 9 9 8 9
1 1 0 1 1 0 1 2 2 2 2 2 0 2 2 2 2 2 2 1 1 1 1 1 1 2 1 2 1 1 2 2 2 1 2 3 2 5 6 1 2 5 5 5 5 4 1 4 3 3 9 12 12 13 13 12 13 12 13 15 14 13 10 9 11 11 7 7 9 7 8 12 15 13 8 5 5 7 9 10 9 10 12 12 11 10 9 9
2 2 0 2 1 1 1 2 3 3 2 1 1 2 2 3 4 2 2 2 1 1 2 2 4 4 3 3 2 1 1 2 3 2 2 1 2 5 5 0 2 2 5 4 3 1 1 3 1 2 8 12 14 14 12 11 12 13 15 16 14 13 13 13 13 12 12 14 15 15 17 18 16 11 5 2 2 5 6 8 9 12 14 14 11 10 9 9
1 2 1 1 1 1 1 1 3 3 2 1 1 2 2 4 5 2 2 3 3 2 3 4 4 6 5 4 4 4 4 4 6 5 3 2 2 2 2 2 1 1 4 4 2 1 3 1 2 1 5 9 10 9 7 9 11 14 17 17 14 13 13 12 12 11 10 12 15 15 17 16 9 2 2 2 3 4 6 8 10 11 14 14 12 9 8 10
3 3 3 2 1 1 1 1 2 2 2 2 2 3 3 5 5 3 3 4 3 3 5 5 5 6 4 4 7 9 8 7 9 10 7 6 6 3 3 2 2 3 5 4 1 2 2 1 1 2 4 5 4 5 8 11 12 14 17 16 12 10 8 7 7 7 7 8 11 12 12 10 3 3 3 4 5 6 8 9 10 11 13 14 11 9 9 12
4 3 3 2 1 2 2 1 2 2 1 3 4 5 4 4 4 4 2 2 2 3 4 5 6 4 3 6 9 10 8 8 10 11 9 9 9 8 7 7 7 7 6 5 3 2 1 2 1 1 4 4 3 6 10 11 9 7 6 6 5 6 5 5 6 7 8 8 9 9 7 4 2 3 4 5 6 8 9 9 9 12 13 12 9 8 10 13
Wind_Direction
25 24 23 18 16 17 12 10 11 10 8 5 1 358 359 2 358 356 358 356 356 357 358 358 356 357 358 358 359 5 36 88 69 46 43 25 10 4 355 353 348 344 350 355 0 356 352 0 7 0 343 321 318 316 329 289 229 221 214 223 233 233 237 239 225 220 239 238 175 156 176 205 230 208 183 207 232 236 237 226 222 224 222 138 35 59 131 151
22 20 19 12 10 15 11 8 9 6 3 359 357 357 360 359 356 356 355 354 353 354 356 355 356 358 357 357 356 3 50 101 65 40 30 8 1 0 355 356 355 355 355 354 2 360 353 358 358 354 355 357 285 313 321 257 206 223 216 227 234 235 244 266 260 243 249 259 237 179 186 208 229 233 184 222 235 220 232 235 217 228 215 149 92 117 144 160
18 15 15 10 4 7 7 4 4 1 358 356 355 356 357 354 353 354 351 351 348 353 357 354 358 357 357 357 351 358 52 134 50 24 5 356 357 1 2 2 3 3 360 347 348 357 358 352 349 351 356 344 295 282 277 217 217 230 227 234 237 249 253 264 348 350 340 312 278 238 204 204 225 230 185 223 237 210 225 235 212 229 220 166 135 144 157 171
16 13 13 10 6 6 6 4 1 358 355 353 352 351 351 349 350 348 348 348 345 353 358 355 1 359 1 4 353 357 155 179 40 3 347 352 353 1 5 2 1 3 3 349 338 354 3 343 343 358 353 336 354 284 256 232 245 229 228 235 241 301 272 279 358 5 3 359 323 294 248 223 245 237 212 224 228 214 223 235 236 252 228 163 157 166 169 178
13 10 9 8 7 5 3 2 358 355 353 350 349 347 346 346 344 343 345 344 345 357 2 359 3 3 8 21 16 8 208 182 18 346 343 349 347 347 351 353 352 355 4 2 348 352 352 341 328 333 340 335 327 273 249 238 263 256 246 249 266 301 295 315 345 348 350 349 341 325 286 287 317 265 235 233 233 233 217 208 239 273 238 164 168 173 175 187
12 9 6 6 6 4 0 359 356 353 351 347 345 343 343 342 339 339 340 341 352 5 7 1 5 9 10 33 43 39 89 58 350 337 345 347 343 337 335 343 345 345 358 13 12 358 346 339 315 307 324 324 294 279 273 258 255 257 255 260 274 290 299 318 327 326 335 328 325 325 306 315 309 278 254 240 243 252 254 112 181 255 185 164 169 175 181 193
12 11 6 5 4 1 358 357 354 351 348 346 343 342 342 340 339 338 335 342 2 9 5 0 7 16 15 31 54 52 67 44 341 342 348 345 343 335 329 336 341 343 356 16 20 10 352 329 312 321 309 290 286 278 282 278 262 258 262 271 283 296 300 310 318 314 318 309 305 308 303 303 291 288 290 263 257 261 265 92 104 96 150 159 167 183 191 196
11 9 4 2 1 357 356 356 353 349 347 345 341 341 341 338 340 334 331 347 9 11 360 360 10 20 24 25 42 52 52 5 342 346 345 341 339 333 332 337 343 351 1 19 21 9 352 330 326 329 294 285 304 289 285 286 266 257 263 275 287 293 291 294 296 297 301 297 300 298 288 285 288 301 292 272 269 269 269 219 224 153 152 171 179 192 198 200
8 6 1 360 359 356 355 355 352 349 346 343 339 339 339 339 337 328 332 1 20 15 356 358 9 19 29 21 299 50 26 348 346 349 346 344 344 344 345 345 346 353 357 358 5 347 342 351 356 348 310 299 293 286 284 280 265 261 273 281 287 289 289 290 283 280 283 284 294 292 284 281 291 307 287 268 262 261 257 249 240 209 188 191 194 198 200 205
6 2 359 359 358 356 354 353 351 348 344 341 338 339 341 339 336 335 354 42 40 19 358 360 4 18 36 22 9 47 8 347 356 356 350 350 354 357 356 351 348 352 348 335 333 323 328 328 329 333 306 281 267 271 270 265 274 292 296 295 291 287 287 285 280 277 276 279 280 279 280 282 287 287 269 258 256 249 233 232 236 232 225 207 205 209 203 210
3 1 359 357 356 355 352 353 350 346 343 342 342 345 344 341 347 5 47 65 47 23 2 3 1 17 46 35 41 42 358 350 360 358 354 356 1 1 358 1 353 346 343 327 315 318 307 299 308 284 265 287 280 269 259 264 288 301 305 302 294 288 283 274 270 269 268 271 267 270 277 277 276 259 249 248 258 256 247 241 230 236 242 228 215 212 208 212
1 360 357 355 354 353 352 352 349 346 344 346 351 348 345 351 12 35 70 58 45 27 12 10 5 18 54 52 50 24 355 357 360 360 356 356 1 1 358 357 348 336 326 307 307 318 289 287 284 252 271 331 302 269 274 308 308 298 298 298 296 292 283 271 263 256 250 253 256 268 274 264 249 248 249 249 257 261 264 261 250 244 253 249 233 218 217 209
360 358 355 354 352 351 351 351 348 345 347 354 356 351 354 18 29 45 63 49 37 25 22 12 5 17 37 70 53 9 358 359 360 359 352 351 356 359 356 348 341 331 307 269 287 307 282 276 245 253 288 305 280 279 309 316 298 283 282 288 298 294 284 277 260 243 236 234 229 235 258 251 241 246 252 253 250 256 263 263 261 250 246 256 250 235 228 211
358 356 354 352 350 349 348 348 347 346 353 359 357 359 28 51 48 44 38 35 24 20 19 13 14 47 38 95 75 359 355 356 358 356 352 350 350 353 355 352 354 349 327 284 294 315 284 246 221 257 276 261 268 302 302 291 278 280 284 281 279 279 279 283 259 240 233 217 200 214 252 252 247 251 251 246 240 243 255 260 261 253 235 237 246 243 241 224
356 354 352 351 349 348 347 346 346 349 359 1 2 32 65 65 55 25 14 51 72 32 21 15 25 75 65 95 2 350 351 351 354 354 357 354 346 346 352 357 11 3 339 308 299 308 239 173 189 263 274 255 262 286 286 275 272 269 274 274 255 265 280 276 264 244 239 213 192 207 247 255 255 259 249 242 239 239 253 258 260 258 242 220 218 234 247 241
354 352 351 349 348 347 346 345 346 354 2 3 17 76 76 64 49 23 32 93 112 50 28 18 22 26 60 55 348 352 352 344 346 353 2 356 345 341 345 351 358 340 340 337 295 236 203 188 205 276 271 262 258 267 280 278 271 243 242 265 263 272 285 285 279 229 230 225 196 207 237 259 254 250 242 243 247 248 254 259 261 263 253 234 223 218 234 243
353 352 350 348 348 346 345 346 349 358 3 7 50 100 86 68 52 42 53 98 99 56 35 23 7 322 94 30 354 351 339 334 340 349 357 356 348 341 343 349 343 332 348 77 66 109 145 216 247 276 247 260 274 276 277 265 264 250 240 255 257 264 278 287 295 232 234 236 212 213 231 252 253 254 262 257 252 246 245 254 259 263 262 251 243 231 229 241
353 350 348 347 347 345 346 347 353 3 5 12 85 121 104 79 59 53 53 72 87 37 41 18 4 156 124 356 346 328 320 325 336 346 351 355 351 345 351 349 331 333 346 107 41 26 40 311 277 285 267 255 259 254 253 260 274 280 268 265 259 256 275 285 286 318 312 275 238 225 232 247 255 259 264 260 259 255 245 253 260 263 267 263 256 248 237 236
352 350 348 347 345 345 348 350 358 8 7 18 109 128 119 88 62 56 48 48 55 43 55 3 5 106 288 320 321 322 320 321 341 351 351 353 349 344 357 342 307 351 16 31 10 16 5 313 292 288 288 273 272 266 263 273 282 283 276 270 269 262 273 281 276 289 308 292 258 243 245 253 257 259 259 253 254 259 260 260 261 264 270 271 266 259 251 243
352 350 347 346 345 346 351 355 6 13 10 25 123 116 82 34 34 56 33 36 57 44 53 347 358 99 305 310 316 334 337 333 348 354 355 354 342 321 351 347 312 26 27 5 353 16 358 323 324 309 309 302 297 291 281 280 280 280 275 264 262 262 269 278 281 270 265 277 267 253 256 260 261 262 262 261 254 256 262 263 261 260 262 266 267 264 260 254
352 350 348 347 347 351 355 2 17 21 22 54 98 89 65 18 32 42 351 21 86 25 22 282 263 268 316 305 317 342 347 321 330 352 1 356 341 323 349 359 5 18 14 358 341 336 314 332 338 325 319 308 300 298 290 278 268 267 265 262 255 252 274 286 284 268 230 239 267 262 262 262 263 266 265 265 258 253 259 264 265 263 261 261 263 265 264 261
352 350 350 351 352 357 360 10 29 29 41 64 73 78 80 34 13 352 319 85 97 355 303 291 252 290 318 298 335 345 313 313 337 358 1 356 2 11 355 4 18 8 357 357 347 333 336 342 335 323 317 304 293 295 290 271 250 243 248 259 258 269 306 302 284 266 237 229 258 268 271 268 267 268 266 265 261 256 257 261 264 267 267 264 261 264 263 259
352 351 353 357 358 358 1 22 41 38 48 60 63 68 68 27 12 24 353 141 83 16 321 354 354 335 345 19 1 344 340 358 343 353 357 356 7 6 355 8 8 352 355 2 352 341 343 334 326 315 303 298 291 286 278 265 245 232 242 256 260 359 339 304 316 332 302 268 264 279 280 273 272 268 262 261 262 258 254 255 257 262 267 269 270 272 272 267
352 353 357 359 357 352 12 51 53 48 52 60 57 48 40 15 29 112 42 232 87 38 17 10 297 336 352 351 349 348 349 348 336 345 351 357 355 333 349 9 356 349 358 353 344 336 321 311 316 311 299 297 293 279 247 250 257 234 245 254 243 28 292 279 301 321 301 265 248 272 274 268 267 262 259 259 263 261 256 256 255 255 262 270 274 273 272 273
351 355 359 358 359 357 70 58 41 44 54 57 43 28 23 11 15 161 184 169 61 8 22 41 193 9 349 332 348 351 264 350 6 344 343 356 352 321 341 7 353 353 350 342 337 331 314 306 316 320 320 327 309 285 238 243 261 233 239 251 255 293 278 281 291 288 263 225 204 225 256 266 254 245 261 289 288 277 271 270 266 260 260 267 275 287 305 316
351 357 360 2 12 27 121 53 25 33 61 48 19 10 14 9 52 179 263 167 57 2 358 360 343 3 357 342 339 320 211 9 350 345 353 356 351 316 333 357 5 348 342 332 318 264 295 300 314 328 338 1 352 305 208 210 248 270 208 213 233 266 272 286 290 259 228 217 157 186 235 251 38 327 1 352 319 306 287 274 277 281 287 303 326 359 21 25
353 2 3 8 20 36 91 70 22 39 64 9 358 358 354 347 179 212 281 95 44 356 342 347 332 356 1 346 330 323 121 330 322 355 1 347 343 295 329 2 8 333 337 317 319 26 306 306 329 343 344 3 1 330 326 243 246 322 48 200 231 256 264 291 288 245 245 323 119 198 227 252 283 335 22 359 332 346 347 347 7 12 20 28 32 35 37 37
360 13 12 13 23 38 64 70 37 45 17 331 344 345 338 30 172 242 263 89 2 326 354 342 319 356 354 333 341 28 76 315 328 356 344 343 357 318 297 8 349 318 326 325 347 2 316 316 336 338 343 3 350 323 320 299 256 332 360 253 244 266 274 298 279 248 265 262 202 182 196 239 270 11 23 351 349 15 37 46 43 38 38 41 40 39 39 41
9 24 19 18 26 38 54 59 50 30 355 339 341 341 351 121 165 257 83 114 304 334 86 342 338 348 342 325 19 43 21 351 22 329 327 350 4 343 245 360 335 312 307 247 315 334 306 306 327 331 350 354 328 315 316 310 285 327 332 264 245 273 296 300 278 246 220 226 232 121 177 225 284 41 359 2 14 16 37 49 47 44 42 40 39 36 34 36
17 31 22 22 30 34 45 50 36 13 358 348 341 349 137 155 240 121 54 23 328 356 274 356 357 330 341 355 28 18 6 4 356 326 330 353 350 352 60 304 315 292 279 209 260 320 311 276 280 342 345 329 314 306 302 290 270 292 299 273 261 261 278 317 306 237 164 143 42 36 200 213 184 60 45 47 37 32 48 53 45 43 41 37 36 33 31 33
29 37 24 26 32 31 33 24 14 10 359 345 343 26 156 214 13 96 65 343 334 345 324 7 0 345 358 12 9 355 352 342 348 355 357 348 357 11 24 6 329 306 348 15 348 334 331 337 15 338 304 334 326 306 227 231 229 267 290 292 294 251 215 210 182 248 145 84 29 336 215 201 178 61 52 52 49 47 51 49 44 42 40 38 35 31 31 31
57 44 28 32 32 29 24 354 355 3 351 342 349 132 197 269 44 76 338 322 338 354 4 350 345 351 348 342 360 349 337 336 355 3 354 346 20 31 33 27 0 350 9 5 346 340 340 8 352 340 131 0 348 348 7 308 302 356 357 318 320 321 351 58 87 358 63 72 19 353 204 170 98 59 51 52 50 49 50 50 48 44 42 39 34 30 30 29
93 57 34 35 30 24 15 351 347 351 344 345 352 185 51 84 59 67 277 333 23 355 346 322 330 344 332 327 5 348 323 357 357 353 348 348 19 42 44 35 13 6 358 344 344 350 348 263 3 4 7 1 2 6 2 342 340 358 0 345 353 8 14 25 33 7 41 51 24 14 234 122 84 59 42 48 47 46 51 50 46 45 44 41 35 32 30 28
127 67 39 32 24 17 7 352 347 344 342 348 181 22 52 81 53 144 264 302 241 300 322 318 320 334 9 8 359 344 341 60 7 352 345 358 23 36 35 30 20 11 339 340 355 357 342 303 14 13 344 340 0 7 333 303 301 336 337 331 12 22 5 7 4 351 350 6 25 19 302 46 91 91 36 39 43 43 47 46 43 45 43 40 37 33 29 26
149 66 39 25 16 9 3 353 344 341 339 342 110 43 68 99 239 186 278 265 230 313 308 343 330 325 42 4 339 354 359 24 3 355 356 18 30 26 22 24 18 10 356 356 357 346 327 286 346 353 315 325 350 347 321 308 292 329 327 313 13 8 328 317 326 320 312 329 38 45 70 60 98 116 60 19 33 35 34 35 35 35 34 35 35 31 27 22
151 57 34 19 10 3 360 351 338 339 336 297 62 52 81 163 217 164 154 278 163 333 299 331 15 1 11 335 322 358 3 258 351 353 15 25 25 26 25 28 21 18 18 5 352 358 334 292 322 339 330 348 357 335 329 350 331 303 340 1 340 314 270 307 315 245 272 18 81 63 101 112 146 128 43 22 27 25 24 28 28 27 27 29 30 26 22 20
127 76 40 13 4 357 354 348 338 341 356 81 76 75 118 254 205 185 336 331 140 344 318 359 36 17 353 319 329 352 344 321 356 359 4 360 20 35 25 35 34 23 12 350 354 35 336 293 306 347 346 351 348 313 275 6 358 339 9 352 311 268 211 309 333 303 318 23 98 87 121 151 170 143 20 21 24 19 19 22 23 25 25 25 23 20 18 17
127 118 47 8 359 352 349 347 344 6 59 62 79 101 167 183 205 223 300 327 182 9 33 58 23 9 340 309 330 348 341 341 4 360 350 348 30 46 26 16 28 17 359 324 311 7 325 298 278 61 355 340 337 322 271 6 16 58 24 330 314 352 16 351 355 347 345 350 9 35 53 68 79 65 24 27 27 18 17 20 22 24 22 21 18 15 16 17
28 199 30 359 355 351 347 347 354 49 69 69 97 123 179 226 246 245 287 293 201 336 54 100 346 255 150 314 318 334 339 344 350 341 343 6 2 58 66 3 344 8 5 339 312 329 325 310 274 25 348 325 321 3 5 2 15 85 307 357 11 358 346 9 8 328 336 337 342 6 17 51 64 64 54 48 39 27 24 24 26 23 19 17 15 12 14 17
22 125 345 351 353 350 349 11 41 50 53 77 131 121 112 223 261 269 300 305 237 307 337 157 160 178 201 268 301 329 330 323 323 320 318 353 335 34 68 20 343 356 355 329 301 324 324 302 279 319 333 319 356 46 11 352 9 20 24 23 16 357 316 347 11 19 353 332 334 338 354 80 82 63 60 57 47 39 33 29 31 24 17 15 12 11 14 17
12 116 337 347 349 346 359 40 50 38 68 92 103 95 87 170 188 10 311 302 333 25 359 313 182 172 219 256 297 327 319 309 298 287 279 230 337 18 58 33 352 349 343 328 342 357 346 299 285 306 328 331 18 45 342 329 10 28 38 32 15 14 8 322 6 53 2 324 333 318 314 87 103 65 56 57 52 48 38 31 29 22 17 13 8 11 16 19
19 116 336 344 348 2 63 58 43 32 99 90 47 116 57 76 84 22 352 347 359 38 37 24 185 190 228 267 322 326 314 301 269 264 274 227 256 304 53 35 351 337 328 326 344 353 330 296 291 301 304 304 310 351 36 325 343 40 57 50 25 18 12 345 340 2 343 314 316 296 299 136 137 77 53 58 54 50 44 35 28 20 16 11 6 10 14 15
26 333 340 350 352 23 78 65 65 34 63 352 318 298 24 40 103 348 3 21 356 321 248 170 191 292 202 232 331 310 308 292 248 263 291 258 282 299 103 26 353 338 333 339 338 329 315 288 301 303 296 293 298 95 87 268 262 34 43 40 31 20 9 337 317 332 315 281 282 261 275 206 176 156 40 51 44 39 41 32 22 18 13 8 5 7 10 9
24 232 325 359 7 87 127 63 125 98 42 347 4 48 22 29 138 21 37 29 358 333 206 172 213 325 347 351 322 233 303 308 229 281 318 304 337 95 97 16 357 347 348 359 336 324 323 318 315 313 316 353 116 137 136 259 305 336 336 1 15 7 352 317 299 305 271 280 293 256 265 181 157 306 1 23 23 21 28 25 18 11 5 4 2 0 5 5
23 178 263 3 25 57 86 60 128 128 122 35 60 67 35 106 100 9 356 29 39 41 269 175 5 324 356 32 14 5 337 326 280 348 1 311 307 138 54 356 357 340 319 352 339 302 290 321 316 322 331 333 327 323 327 324 321 318 301 300 323 334 323 307 294 260 258 288 232 238 261 277 310 322 344 8 8 3 9 12 11 4 357 358 354 352 359 1
344 65 266 355 28 51 70 50 67 115 140 155 138 131 132 136 118 27 191 154 67 91 15 15 351 290 172 67 3 350 335 320 325 352 316 295 298 41 332 338 350 328 334 11 4 323 256 295 268 256 261 267 287 303 315 322 308 296 294 299 303 303 290 284 274 250 252 284 265 249 262 279 289 303 330 356 356 349 352 358 360 355 350 350 349 346 350 356
338 54 9 333 27 47 63 45 39 80 97 276 168 153 159 162 149 77 177 227 40 94 39 6 204 220 212 195 247 304 306 312 334 316 276 276 264 291 309 316 353 345 2 21 4 354 329 294 272 255 255 258 277 290 297 302 290 284 290 293 293 294 282 250 241 246 268 299 275 248 253 273 282 297 324 348 348 341 343 349 349 346 342 343 344 340 341 351
38 136 281 318 305 74 71 59 63 69 41 1 68 143 151 163 170 179 177 154 79 173 206 229 205 202 178 152 173 269 308 309 304 230 262 284 289 312 320 116 100 4 25 40 10 21 316 280 285 275 270 271 278 282 287 290 283 279 280 278 281 285 275 255 249 247 244 252 259 265 281 284 285 296 317 353 348 334 338 340 339 339 338 338 338 334 336 348
71 120 93 339 307 170 104 86 102 106 90 62 110 183 187 189 186 177 131 130 148 223 224 231 205 186 167 154 171 246 241 256 291 268 218 249 306 316 321 74 128 36 35 41 24 22 262 264 321 305 286 282 279 279 281 279 277 277 274 270 274 276 270 265 262 255 243 246 258 273 282 281 282 292 315 13 337 323 328 332 338 340 336 333 333 330 334 345
118 144 138 47 63 114 103 113 135 142 127 84 234 210 201 206 200 182 158 178 186 169 194 229 195 173 183 187 192 229 225 223 265 269 225 224 273 272 279 282 185 76 12 19 27 312 305 337 49 346 288 282 281 283 278 274 281 285 281 277 273 270 267 260 256 253 245 249 260 266 273 277 280 306 5 347 327 320 324 332 338 337 330 327 327 330 337 341
108 115 135 125 96 138 170 151 144 163 168 183 197 180 196 220 208 183 190 211 213 184 188 202 178 161 185 206 214 238 243 236 250 258 251 254 261 236 211 246 259 304 327 333 304 301 302 294 31 10 297 283 289 304 295 292 292 283 279 279 264 246 248 241 234 230 225 251 268 264 266 276 298 52 2 328 330 328 329 335 335 329 324 321 323 330 337 339
123 103 120 116 103 185 188 155 169 194 199 190 179 169 194 213 186 177 203 218 230 236 218 187 165 159 200 222 230 243 249 248 254 261 265 260 257 250 242 250 261 271 284 285 279 286 249 255 313 339 287 282 306 312 308 308 300 274 271 287 240 199 209 230 232 231 233 257 278 273 272 293 349 352 320 317 329 328 326 331 328 321 317 315 316 324 333 336